CNCE4 (52767 NORAD) Tracking and Keplerian Element Data

This shows tracking and keplerian element data for the satellite.

Feedback or suggestion? Click here.




ElementValue
Catalog52767
NameCNCE4
Epoch Orbit711
Epoch Day192.75808645
Epoch Year2022
RAAN307.1402
Inclination97.517
Eccentricity0.0014262
Argument of Perigee71.4443
Mean Anonmoly288.8336
Mean Motion15.13756085
Decay Rate6.698E-05
L11 52767U 22057AM 22192.75808645 .00006698 00000+0 37414-3 0 9992
L22 52767 97.5170 307.1402 0014262 71.4443 288.8336 15.13756085 7111

Live tracking and technical data element details for CNCE4 (NORAD 52767). CNCE4 can be tracked NOW for your location showing map with azimuth and elevation plus other details from your city location.

Track the satellite on the map from your city or location and see movement details for azimuth, elevation, latitude, longitude, range, height, and movement on the map or in text.







IsCatalogInMostPopularTable: catalog: 52767, numindb: 2
Update: records affected: 1



GetName: 52767 CNCE4

Hit Count: updated at: Sun, 14 Aug 2022 00:19:16 GMT